Wind_Speed
29 30 30 31 31 32 32 32 32 32 33 33 33 33 33 33 34 34 34 35 36 36 36 36 37 38 38 38 39 39 39 40 39 38 38 38 37 37 36 36 36 36 35
30 31 31 31 31 31 31 31 32 32 32 32 32 32 33 33 33 33 34 34 35 36 37 37 38 39 39 39 39 39 39 40 41 41 40 39 39 39 38 38 38 38 37
31 31 31 31 32 32 32 32 32 32 32 32 33 33 34 34 34 34 34 35 35 36 37 38 39 41 40 40 41 41 40 40 41 42 42 42 41 41 40 39 39 39 39
32 32 32 32 32 32 32 32 32 32 32 33 33 33 34 34 34 35 35 36 37 37 38 39 40 40 41 42 42 42 42 42 43 43 43 43 43 43 42 42 41 41 40
34 34 34 33 33 32 32 32 32 32 32 32 33 33 34 34 35 36 36 37 37 38 38 39 40 40 41 42 43 44 45 45 45 44 44 44 44 44 44 44 43 43 43
34 34 33 33 33 32 32 32 32 32 32 32 32 33 34 36 37 38 38 38 38 39 39 40 40 41 42 42 44 45 46 46 46 45 44 44 45 45 45 44 44 44 43
34 34 33 33 33 33 33 33 33 33 33 34 34 35 35 36 37 37 37 37 38 39 39 40 41 42 43 44 44 46 45 45 46 46 45 45 45 45 46 45 45 45 44
34 34 33 33 33 33 34 34 34 34 35 36 37 37 37 38 38 38 38 39 39 39 40 41 41 42 43 43 45 46 46 47 46 46 46 47 46 46 46 45 45 45 44
32 32 33 33 33 34 34 35 36 36 36 37 38 39 39 39 39 40 40 40 40 41 41 42 42 42 42 43 44 45 47 47 47 46 46 46 46 46 47 47 48 47 48
34 34 34 34 35 36 36 37 37 38 39 39 40 40 41 41 41 40 41 42 42 42 42 43 43 43 44 44 44 45 46 47 48 47 46 46 47 47 47 47 48 48 49
35 35 36 37 37 38 39 39 40 40 41 41 41 42 42 42 42 41 41 42 43 44 44 44 44 44 44 44 45 46 46 47 47 48 47 47 48 48 49 49 48 49 50
37 38 38 39 40 40 41 41 42 42 43 43 43 43 43 43 43 43 42 42 42 44 44 44 44 44 44 45 45 46 47 48 48 48 49 49 49 50 50 51 51 51 50
39 40 41 42 43 43 43 44 44 45 45 45 45 45 45 45 45 45 44 44 43 44 44 45 45 45 45 45 46 47 48 48 49 49 49 50 51 51 52 52 54 54 53
42 43 44 44 45 45 45 46 46 46 46 46 46 46 46 46 46 46 46 46 45 45 45 45 46 47 47 47 48 49 49 49 49 50 50 51 52 52 52 53 54 55 55
44 46 46 46 46 46 47 47 47 48 48 48 48 48 47 47 47 47 47 47 46 46 46 46 47 48 48 49 49 50 50 50 50 51 51 51 52 52 53 54 55 55 55
45 46 46 46 47 47 48 48 49 49 49 49 49 49 49 49 49 48 48 47 47 47 47 47 48 49 49 50 50 50 50 51 50 50 51 52 52 52 53 53 54 55 56
45 46 47 47 48 48 48 49 49 49 49 49 49 50 50 49 49 48 48 48 48 48 47 48 49 49 49 49 50 50 50 50 50 51 52 52 53 52 52 53 54 55 56
46 47 47 48 48 48 49 50 50 50 50 50 50 50 49 48 48 48 48 47 47 47 47 48 49 49 49 49 49 49 48 48 49 50 51 51 52 52 52 53 53 53 54
47 48 48 49 49 49 50 50 50 49 49 49 49 49 49 48 48 48 47 47 47 48 48 48 48 48 48 48 48 48 48 49 49 50 51 51 51 52 52 53 53 54 54
48 49 49 49 50 50 50 50 50 49 49 49 49 49 48 48 48 47 47 47 47 47 47 47 47 47 48 47 47 47 47 48 48 49 50 50 51 51 52 52 53 54 54
49 49 50 50 50 50 50 50 50 49 49 48 48 48 48 47 47 47 46 46 46 46 47 46 46 46 46 46 46 46 46 46 47 48 48 49 50 51 51 51 51 52 54
50 51 51 51 51 51 50 49 49 49 48 48 48 47 47 47 46 46 46 45 45 45 45 45 45 45 45 45 45 45 45 45 46 47 48 48 49 49 49 49 50 51 54
51 51 51 51 51 50 50 49 49 48 48 48 47 46 46 46 46 45 45 45 45 44 44 44 44 44 44 44 44 44 45 45 46 46 46 46 47 47 48 48 48 49 50
51 51 51 51 50 50 49 49 49 48 47 46 46 46 45 45 44 44 44 44 44 44 44 44 44 45 45 44 44 44 44 44 45 45 45 44 45 46 47 47 47 48 49
51 51 51 50 49 49 49 48 47 47 46 46 45 45 44 44 43 43 43 43 43 43 44 44 44 44 45 45 44 44 44 44 44 44 45 45 45 45 45 47 47 48 48
51 50 50 49 48 47 47 47 46 45 44 44 44 44 44 44 43 43 43 43 43 43 43 43 44 44 44 44 44 44 44 44 44 43 44 44 44 44 44 44 46 47 47
Wind_Direction
287 288 288 288 288 288 286 284 283 282 280 279 279 279 280 280 279 277 276 274 273 272 270 269 268 267 267 267 266 266 266 266 266 266 266 266 266 266 266 266 266 265 265
286 287 287 288 288 289 288 286 284 282 281 280 280 280 280 280 279 278 277 276 275 273 271 269 268 267 267 266 266 266 267 266 266 266 266 265 265 264 264 265 265 264 264
286 287 288 288 288 288 287 286 285 283 282 281 281 281 280 280 279 278 277 276 276 275 272 270 269 268 267 266 266 266 267 267 266 265 265 265 264 264 264 264 264 264 264
286 287 288 288 289 289 288 287 285 284 283 282 281 281 280 280 281 279 278 277 276 275 274 271 269 269 267 266 266 265 266 267 266 265 264 264 264 263 263 264 263 263 263
285 286 287 288 289 289 289 288 287 286 284 283 283 282 281 282 282 282 280 278 277 276 274 272 270 269 269 268 266 265 265 266 266 265 264 264 262 262 262 262 262 262 262
284 285 286 286 287 287 288 288 287 287 286 285 284 284 284 284 284 283 282 280 278 277 275 273 271 270 270 269 267 267 266 265 266 266 265 263 262 262 262 262 261 261 262
282 283 285 286 286 286 287 287 287 287 286 286 285 285 286 286 286 286 285 283 281 279 277 276 274 273 272 271 270 269 268 267 267 266 266 265 263 263 262 260 260 260 261
283 283 285 286 286 286 287 287 287 287 287 286 286 287 286 286 286 287 286 284 282 280 278 276 276 274 273 272 271 270 269 268 267 268 266 266 265 264 263 261 260 260 260
283 284 286 287 288 288 288 288 288 288 288 288 287 287 287 287 287 287 286 283 282 280 278 277 276 275 274 273 271 271 270 269 267 268 267 266 265 264 264 263 262 261 260
285 285 286 287 287 287 288 288 288 289 290 289 289 288 287 286 286 285 285 283 281 280 279 278 277 276 275 273 272 271 270 269 268 268 268 266 264 264 263 263 262 261 260
285 285 287 287 287 287 287 288 289 290 290 290 290 289 288 286 285 285 284 282 281 281 280 279 278 276 275 274 272 271 270 270 270 268 268 267 266 265 264 263 262 261 260
286 285 286 287 286 287 287 288 289 289 289 289 289 289 288 287 286 285 284 282 281 280 280 279 278 277 275 274 273 271 271 270 270 269 268 267 267 266 265 263 262 262 260
286 286 286 286 287 288 288 289 288 288 288 288 288 287 286 286 285 285 284 282 281 280 279 279 278 276 276 275 274 273 272 271 270 270 269 267 267 266 265 264 262 261 261
286 287 286 287 287 288 288 288 289 288 288 288 287 286 286 285 285 284 283 282 281 279 279 278 277 276 276 275 275 274 273 272 270 269 269 268 267 266 265 264 262 261 260
288 288 288 289 288 288 288 288 289 289 288 288 287 286 285 285 284 284 282 281 280 279 278 278 277 277 276 276 275 275 273 272 270 269 269 268 267 266 265 265 263 260 259
289 289 289 290 289 289 288 289 289 289 288 287 286 285 285 284 284 283 282 280 279 279 278 278 278 278 277 277 276 276 275 273 271 270 270 269 268 266 265 265 263 261 259
290 290 290 290 290 289 289 289 289 288 287 286 285 285 284 283 283 283 282 280 279 279 278 278 279 279 279 278 277 276 275 273 271 270 270 270 269 267 266 265 264 262 259
291 291 291 290 290 290 289 289 288 288 287 286 285 285 284 283 283 282 281 281 280 279 279 279 280 279 279 279 278 277 276 274 272 272 271 271 269 268 267 265 264 261 258
291 291 291 290 289 289 289 288 287 287 286 286 285 284 283 283 282 282 281 281 280 280 280 280 280 279 279 279 279 278 278 276 274 273 272 271 270 268 267 266 264 261 259
291 291 291 290 289 289 288 288 287 287 286 286 285 284 283 282 282 282 282 282 281 281 281 280 280 280 279 279 279 279 279 278 276 274 274 272 270 269 268 266 264 261 260
291 291 290 290 290 289 288 287 287 286 286 286 286 285 284 283 282 282 283 283 282 282 282 281 281 280 280 280 280 279 279 279 277 275 275 273 271 271 269 267 266 262 260
291 291 290 290 289 288 288 287 287 286 286 286 286 285 284 283 282 283 283 283 283 283 282 282 281 280 281 281 281 281 280 279 278 277 275 274 273 273 271 269 267 264 261
291 290 290 289 288 288 287 287 286 287 287 286 285 285 284 283 283 283 282 283 283 284 282 282 282 281 281 282 282 282 282 281 280 279 277 275 274 273 272 271 269 267 264
291 291 290 289 288 288 287 287 287 286 286 286 285 284 283 283 283 283 283 283 284 284 284 283 283 283 283 283 283 283 283 282 281 281 279 277 275 273 272 271 269 268 267
292 291 291 290 289 288 288 288 287 287 286 285 284 284 283 283 284 284 283 283 283 284 284 283 283 283 283 282 283 283 283 282 282 281 280 278 276 275 273 272 271 269 268
292 292 291 291 289 288 288 287 286 287 286 285 284 284 284 284 284 284 284 284 284 284 284 284 285 284 284 283 283 283 283 283 282 281 281 279 278 276 274 272 271 270 269
Height
5821 5819 5817 5816 5814 5812 5809 5808 5806 5805 5803 5802 5801 5800 5799 5798 5797 5796 5795 5795 5794 5794 5794 5794 5794 5793 5793 5793 5794 5795 5795 5795 5795 5796 5796 5797 5797 5798 5799 5799 5800 5800 5801
5815 5813 5811 5809 5807 5805 5802 5800 5799 5797 5796 5795 5793 5792 5791 5790 5789 5788 5787 5786 5786 5785 5785 5785 5784 5784 5784 5784 5784 5785 5785 5786 5786 5787 5787 5788 5788 5789 5790 5790 5791 5792 5793
5808 5806 5804 5802 5800 5797 5795 5793 5791 5790 5788 5787 5786 5785 5783 5782 5781 5780 5779 5778 5777 5776 5776 5775 5775 5775 5774 5775 5775 5775 5775 5776 5776 5777 5777 5778 5779 5780 5780 5781 5782 5782 5783
5800 5799 5797 5795 5793 5790 5788 5786 5784 5782 5781 5780 5778 5777 5775 5774 5773 5771 5770 5769 5768 5767 5766 5766 5765 5765 5765 5765 5765 5765 5765 5765 5766 5766 5767 5768 5769 5770 5770 5771 5772 5773 5774
5793 5791 5790 5788 5785 5783 5781 5779 5777 5775 5774 5772 5770 5769 5767 5766 5764 5762 5761 5759 5758 5757 5757 5756 5755 5755 5755 5755 5754 5754 5754 5754 5754 5755 5756 5757 5757 5758 5759 5761 5762 5763 5764
5785 5784 5782 5780 5778 5776 5774 5772 5770 5768 5766 5765 5763 5761 5759 5757 5755 5753 5751 5749 5748 5747 5746 5746 5745 5745 5744 5744 5744 5743 5743 5743 5743 5743 5744 5745 5746 5747 5748 5749 5751 5752 5753
5778 5776 5774 5773 5771 5769 5767 5765 5763 5761 5759 5757 5755 5753 5751 5749 5746 5744 5742 5740 5738 5737 5736 5735 5735 5734 5734 5733 5733 5732 5732 5732 5732 5733 5733 5734 5735 5736 5737 5738 5739 5740 5742
5770 5768 5767 5765 5763 5761 5759 5757 5755 5753 5751 5749 5747 5745 5743 5741 5738 5735 5733 5730 5729 5727 5726 5725 5724 5723 5723 5722 5722 5721 5721 5720 5721 5721 5721 5722 5723 5724 5725 5726 5728 5729 5731
5762 5761 5759 5757 5755 5754 5751 5749 5747 5745 5743 5740 5738 5736 5733 5731 5729 5726 5723 5720 5718 5717 5715 5714 5713 5712 5711 5711 5710 5709 5709 5709 5709 5709 5709 5710 5711 5712 5713 5714 5716 5717 5719
5755 5753 5751 5749 5747 5745 5743 5741 5738 5736 5733 5731 5728 5725 5723 5721 5718 5716 5713 5710 5708 5706 5704 5703 5702 5701 5700 5699 5698 5698 5697 5697 5697 5697 5697 5698 5699 5700 5701 5701 5703 5705 5707
5747 5745 5743 5741 5739 5736 5734 5731 5729 5726 5723 5721 5718 5715 5712 5709 5707 5705 5703 5700 5697 5695 5693 5691 5690 5689 5688 5687 5686 5685 5685 5684 5684 5684 5685 5685 5686 5687 5687 5689 5690 5691 5693
5738 5736 5734 5731 5729 5726 5724 5721 5718 5716 5713 5710 5707 5704 5701 5698 5695 5693 5691 5688 5686 5683 5681 5679 5678 5676 5675 5674 5673 5673 5672 5671 5671 5671 5671 5672 5672 5673 5674 5675 5676 5678 5679
5729 5726 5724 5721 5718 5716 5713 5710 5707 5704 5701 5698 5695 5692 5689 5686 5683 5680 5678 5676 5674 5672 5669 5667 5665 5664 5663 5662 5661 5660 5659 5658 5658 5657 5657 5658 5658 5659 5660 5661 5662 5663 5665
5718 5716 5713 5710 5707 5704 5701 5698 5695 5692 5689 5686 5683 5680 5677 5673 5670 5668 5665 5663 5661 5659 5657 5655 5652 5651 5650 5648 5647 5646 5645 5645 5644 5644 5643 5644 5644 5644 5645 5646 5647 5648 5650
5708 5705 5702 5698 5695 5692 5689 5686 5683 5680 5677 5673 5670 5667 5664 5661 5657 5655 5652 5650 5648 5646 5644 5642 5640 5637 5636 5635 5633 5632 5631 5630 5630 5629 5629 5628 5629 5629 5629 5630 5631 5632 5634
5696 5693 5690 5686 5683 5680 5677 5673 5670 5666 5663 5660 5657 5654 5650 5647 5644 5641 5639 5636 5634 5632 5630 5628 5626 5624 5622 5620 5619 5617 5616 5615 5614 5614 5613 5613 5613 5613 5614 5614 5615 5617 5618
5685 5681 5678 5674 5671 5667 5664 5660 5657 5653 5650 5646 5643 5640 5637 5634 5631 5628 5625 5622 5620 5618 5616 5614 5612 5610 5608 5606 5604 5602 5601 5600 5599 5599 5598 5597 5597 5597 5598 5598 5599 5600 5602
5673 5669 5665 5662 5658 5654 5651 5647 5643 5640 5636 5633 5629 5626 5623 5620 5617 5614 5611 5609 5606 5604 5603 5600 5598 5595 5593 5591 5589 5588 5586 5585 5584 5583 5582 5581 5581 5581 5582 5582 5583 5584 5585
5661 5657 5653 5649 5645 5641 5637 5633 5630 5626 5622 5619 5616 5612 5609 5606 5604 5601 5598 5595 5593 5590 5588 5586 5584 5581 5579 5577 5575 5573 5571 5570 5568 5567 5566 5566 5565 5565 5565 5565 5566 5567 5568
5648 5644 5640 5636 5631 5627 5623 5620 5616 5612 5609 5605 5602 5599 5596 5593 5590 5587 5584 5582 5579 5576 5574 5572 5570 5567 5565 5563 5561 5560 5557 5555 5553 5552 5550 5549 5549 5548 5548 5549 5549 5550 5552
5635 5631 5627 5622 5618 5614 5610 5606 5602 5599 5595 5592 5588 5585 5582 5579 5576 5573 5571 5568 5565 5563 5560 5558 5556 5553 5551 5549 5547 5545 5543 5541 5539 5537 5535 5533 5533 5533 5532 5532 5532 5532 5534
5621 5617 5613 5608 5604 5600 5596 5592 5589 5585 5582 5578 5575 5572 5569 5566 5563 5560 5557 5554 5552 5549 5547 5544 5542 5540 5538 5535 5533 5531 5529 5527 5525 5524 5522 5519 5517 5517 5515 5515 5515 5516 5517
5607 5603 5599 5594 5590 5586 5582 5579 5575 5572 5569 5565 5562 5558 5555 5552 5549 5547 5544 5541 5538 5536 5533 5531 5529 5526 5524 5522 5520 5518 5515 5513 5510 5508 5507 5505 5503 5502 5501 5500 5499 5500 5500
5593 5589 5585 5580 5577 5573 5568 5565 5562 5558 5555 5552 5548 5545 5542 5539 5536 5533 5531 5528 5525 5523 5520 5518 5516 5513 5511 5508 5506 5504 5501 5499 5496 5493 5492 5491 5489 5488 5486 5485 5484 5484 5485
5579 5575 5570 5566 5562 5559 5555 5551 5548 5545 5542 5538 5535 5532 5529 5526 5523 5521 5518 5516 5513 5510 5507 5505 5502 5500 5497 5495 5492 5490 5488 5485 5483 5480 5477 5476 5475 5474 5473 5471 5469 5469 5468
5565 5561 5557 5552 5548 5545 5541 5537 5534 5531 5528 5526 5522 5519 5516 5514 5511 5508 5505 5503 5500 5497 5494 5491 5489 5486 5484 5481 5478 5476 5474 5471 5469 5467 5464 5462 5460 5459 5459 5458 5455 5454 5453